CZ-6A DEB

Satellite information

Favourite Embed

Satellite Type and Status

DEBRISIN ORBIT

Key statistics

Satellite CZ-6A DEB at a glance.

Uptime

909

Days in orbit

Revolutions

≈ 14.3

Per day

Orbit

SSO

Sun Synchronous Orbit

Inclination

98.8

Latest

Satellite identification and parameters

Extended collection of information and parameters for CZ-6A DEB.

Object identification

Identified? True

Debris? True

Object name: CZ-6A DEB

International designator: 2022-151RY

Object number (NORAD): 54935

Object ID (CCSDS): 54935

Country: PEOPLES REPUBLIC OF CHINA (PRC)

Current information (Y/N): Y

RCS size: SMALL

Orbital parameters

Period: 100.701 minutes

Inclination: 98.7519 deg

SMA: 7169.972 km

Apoapsis: 796.329 km

Periapsis: 787.344 km

RAAN: 143.6943 deg

Eccentricy: 0.0006266

Argument of periapsis: 113.588 deg

Mean anomaly: 246.5961 deg

Mean motion: 14.29968955 rev/day

Mean motion (dot): 0.00005169 rev/day2

B* drag term: 0.0020209 1/REarth

Two-line elements (TLE)

Creation date: May 7, 2025, 3:14 a.m.

Reference frame: TEME

Reference center: EARTH

Epoch: May 6, 2025, 12:17 a.m. UTC

TLE line 0: 0 CZ-6A DEB

TLE line 1: 1 54935U 22151RY 25126.01247098 .00005169 00000-0 20209-2 0 9990

TLE line 2: 2 54935 98.7519 143.6943 0006266 113.5880 246.5961 14.29968955128364

Live tracking on map

Real-time ground track for satellite CZ-6A DEB.

In-orbit conjunctions

A list of the most updated potential collisions computed for object CZ-6A DEB.

Target Orbit TCA Probability of collision Miss distance Type
SL-3 DEB LEO 2024-12-11 19:07:09 0.0001900653 89.0 (m) DEBRIS
COSMOS 158 LEO 2024-12-04 10:43:24 0.0001496243 628.0 (m) PAYLOAD
THORAD AGENA D DEB LEO 2024-11-16 20:52:51 0.001152333 245.0 (m) DEBRIS
FENGYUN 1C DEB SSO 2024-09-27 22:58:11 0.0001195919 62.0 (m) DEBRIS

Associated space launch

Chinese satellite reported for atmospheric/ocean/environmental/spatial parameter research purposes, details TBD.

CZ-6A DEB was lifted into orbit during the mission ‘Long March 6A | Yunhai 3’, on board a Long March 6A space rocket.

The launch took place on Nov. 11, 2022, 10:52 p.m. from Launch Complex 9A.

For more information about the launch, click the button.

Launch to space Long March 6A | Yunhai 3
Long March 6A | Yunhai 3

Agency: N/A

Status: Launch Successful

Launch date: Nov. 11, 2022, 10:52 p.m. UTC

Rocket: Long March 6A

Launch pad: Launch Complex 9A

Location: Taiyuan Satellite Launch Center, People's Republic of China

...

Latest news about this satellite

There are no fresh news available about this satellite. Check back as we update our databases every day.


Newsletter sign-up

Weekly statistics, charts and insights to help you stay on top of the space industry.